Temp
65 66 66 65 65 65 65 65 65 65 65 65 65 65 65 64 64 67 63 68 71 74 72 67 68 66 64 59 60 57 43 40 44 46 48 56 53 59 62 58 59 61 61 65 70
65 65 65 65 65 65 65 65 64 64 64 64 64 65 64 63 63 65 71 75 75 74 67 63 60 63 56 56 56 49 41 45 52 52 50 55 54 54 54 55 56 58 63 65 66
65 65 65 65 65 64 64 64 64 64 64 64 64 64 63 62 60 61 74 75 74 72 68 67 65 61 54 55 53 50 45 53 55 57 57 54 54 57 53 49 53 53 58 62 62
64 64 64 64 64 64 64 63 64 64 64 64 64 63 63 61 50 62 74 74 74 70 68 65 61 54 51 49 55 46 54 56 57 58 57 53 56 52 51 50 56 55 57 59 60
64 64 63 63 63 63 63 63 63 64 63 63 63 63 61 57 58 69 73 72 71 68 65 62 57 53 47 50 53 48 52 57 58 57 57 56 49 51 47 53 55 55 54 53 56
64 63 62 62 62 62 62 63 63 63 63 63 63 62 58 53 68 70 69 70 69 66 63 62 57 57 51 51 48 52 52 54 55 56 56 50 49 49 48 52 51 50 50 51 53
63 62 62 62 62 62 62 63 63 63 62 63 63 63 59 58 68 69 70 66 67 65 60 62 61 55 53 49 55 53 48 52 52 54 53 52 42 41 48 51 47 47 47 48 50
62 62 62 61 61 61 62 62 62 62 62 63 63 59 55 69 65 70 70 66 67 67 64 63 62 55 52 54 54 48 45 38 51 52 52 51 35 43 47 46 44 45 45 45 48
62 61 61 61 61 61 61 62 63 63 63 63 59 56 53 69 66 66 65 63 65 64 63 69 59 52 53 44 39 41 33 38 44 52 50 46 37 43 46 44 42 41 41 42 48
61 61 60 60 60 61 61 62 63 62 63 66 67 54 62 59 63 66 65 65 60 59 58 55 51 45 42 39 29 33 35 37 39 47 47 40 37 41 42 42 40 39 40 47 49
61 60 60 60 60 61 60 58 55 55 57 54 55 56 60 65 65 63 65 62 60 55 46 50 41 37 42 42 44 42 38 37 44 50 45 39 38 37 41 40 37 36 38 43 45
60 60 60 60 60 60 59 52 50 52 48 59 60 59 63 62 56 61 66 54 53 46 49 44 37 47 51 49 45 44 38 37 45 50 45 38 35 38 39 38 38 35 37 40 42
60 59 60 60 59 58 54 53 58 56 45 56 59 59 59 60 55 56 60 55 49 47 45 40 45 53 50 45 43 39 35 37 39 45 46 38 33 36 40 42 42 40 40 41 39
59 59 59 58 59 56 52 58 58 56 42 52 55 58 60 59 53 62 60 54 51 47 46 44 50 48 46 45 42 36 44 43 42 38 31 41 25 33 36 38 40 41 41 40 40
59 59 59 59 54 53 55 58 56 50 28 53 56 64 60 54 56 56 59 55 47 48 46 44 44 43 42 45 45 42 46 43 41 36 33 35 29 30 36 33 36 38 41 42 41
59 58 57 57 55 55 57 55 51 40 27 47 54 53 53 54 54 57 55 55 55 48 48 47 49 47 45 49 47 50 43 41 38 34 25 33 30 26 29 33 34 36 38 41 43
58 58 55 59 54 57 55 49 40 32 51 47 47 52 48 49 51 50 49 46 41 35 34 44 44 47 49 44 47 43 35 26 25 23 25 34 28 27 35 36 36 36 37 38 40
57 57 58 61 57 55 52 48 36 45 44 51 50 49 45 48 48 49 45 41 46 42 35 31 31 43 48 43 39 38 35 26 24 23 25 34 24 29 38 39 39 39 38 39 38
57 55 55 55 57 53 50 37 38 42 48 47 48 42 43 47 45 46 41 41 42 44 35 33 35 45 46 46 44 40 33 39 30 30 25 26 29 35 38 37 37 37 37 35 37
52 53 54 57 56 52 46 43 44 50 50 48 39 44 38 43 43 41 41 44 44 46 44 38 30 43 45 45 44 41 44 33 30 26 24 25 24 26 31 33 35 34 33 35 36
53 51 56 57 54 49 41 42 48 52 51 46 43 42 41 40 41 40 41 44 47 45 44 40 36 37 43 39 39 40 38 38 37 31 26 23 26 35 33 35 34 34 35 34 34
53 46 56 55 47 44 43 47 48 49 50 48 45 44 41 43 41 40 41 43 47 46 40 40 37 29 36 43 44 42 39 39 28 30 29 28 27 39 36 36 36 34 35 34 34
48 46 54 55 42 42 46 49 49 48 47 47 45 47 46 42 38 41 42 46 47 44 39 41 34 26 33 37 41 37 40 40 38 32 27 26 27 36 34 34 34 32 32 33 33
50 42 47 46 45 42 45 47 45 48 47 49 49 49 43 41 44 41 41 45 46 45 49 46 37 36 28 35 36 35 39 40 38 27 28 29 27 31 33 32 32 32 31 30 31
48 46 47 40 43 43 46 46 43 43 46 49 46 47 44 38 40 39 42 42 43 46 42 42 31 35 37 40 37 37 38 39 34 37 31 34 32 33 34 31 31 32 33 31 30
46 45 46 45 45 45 45 41 43 45 48 46 44 47 45 39 44 38 40 39 40 38 38 39 31 34 30 40 39 34 39 39 39 39 37 38 32 32 32 33 31 30 31 29 29
49 49 49 46 45 43 43 43 44 46 49 51 48 45 43 45 45 45 45 45 42 39 37 36 32 29 27 35 34 29 36 36 37 37 38 33 33 32 30 31 29 28 28 27 28
MSLP
1022.56 1022.25 1021.86 1021.54 1021.20 1020.87 1020.56 1020.30 1020.00 1019.71 1019.53 1019.32 1019.09 1018.92 1018.68 1018.20 1017.31 1017.01 1017.02 1017.00 1016.94 1016.76 1016.45 1016.27 1015.67 1015.54 1015.38 1015.89 1016.08 1016.54 1017.77 1018.48 1018.27 1017.95 1017.92 1017.34 1017.40 1016.97 1016.74 1016.71 1016.42 1015.98 1015.73 1015.08 1014.16
1022.68 1022.35 1022.00 1021.56 1021.15 1020.84 1020.53 1020.20 1019.88 1019.62 1019.38 1019.23 1019.01 1018.84 1018.56 1018.28 1017.96 1017.36 1017.03 1016.84 1016.82 1016.78 1016.81 1016.65 1016.35 1016.05 1016.05 1016.12 1016.50 1017.07 1018.19 1018.14 1017.72 1017.65 1017.67 1017.59 1017.70 1017.56 1017.45 1017.25 1017.01 1016.39 1015.52 1015.10 1014.59
1022.71 1022.35 1021.98 1021.56 1021.07 1020.66 1020.37 1020.03 1019.76 1019.42 1019.21 1019.04 1018.87 1018.75 1018.55 1018.37 1018.13 1017.53 1017.08 1017.00 1016.92 1016.94 1016.90 1016.75 1016.50 1016.36 1016.42 1016.43 1016.81 1017.15 1017.61 1017.52 1017.46 1017.31 1017.49 1017.69 1017.80 1017.73 1017.90 1018.38 1018.33 1017.81 1016.45 1015.34 1014.84
1022.72 1022.30 1021.91 1021.47 1021.02 1020.56 1020.19 1019.81 1019.47 1019.18 1019.00 1018.85 1018.72 1018.61 1018.51 1018.32 1018.25 1017.49 1017.19 1017.07 1017.02 1016.98 1016.95 1016.77 1016.86 1016.94 1017.17 1017.35 1017.07 1017.23 1017.34 1017.36 1017.19 1017.23 1017.41 1018.00 1018.20 1018.73 1019.55 1020.23 1019.24 1018.40 1017.55 1016.44 1015.27
1022.87 1022.43 1021.97 1021.51 1021.03 1020.52 1020.00 1019.51 1019.10 1018.82 1018.72 1018.60 1018.55 1018.46 1018.41 1018.10 1017.75 1017.34 1017.28 1017.09 1017.01 1017.03 1017.20 1017.23 1017.38 1017.54 1017.86 1017.83 1017.49 1017.20 1017.38 1017.31 1017.30 1017.28 1017.60 1018.19 1019.23 1019.46 1020.44 1020.17 1019.63 1018.78 1018.01 1017.51 1016.26
1023.03 1022.57 1022.06 1021.49 1020.90 1020.35 1019.83 1019.27 1018.85 1018.55 1018.45 1018.44 1018.44 1018.44 1018.35 1017.81 1017.08 1017.17 1017.08 1017.05 1017.15 1017.18 1017.32 1017.40 1017.67 1017.66 1017.98 1017.93 1017.90 1017.36 1017.68 1017.36 1017.45 1017.38 1017.71 1018.81 1020.11 1020.34 1021.56 1021.33 1020.62 1019.90 1019.19 1018.33 1017.34
1023.08 1022.62 1022.04 1021.37 1020.68 1020.20 1019.65 1019.12 1018.75 1018.54 1018.31 1018.27 1018.42 1018.40 1018.03 1017.61 1017.03 1017.00 1016.94 1017.09 1017.17 1017.33 1017.50 1017.64 1017.74 1017.90 1018.03 1018.08 1017.68 1017.53 1017.89 1017.84 1017.81 1017.59 1017.88 1018.78 1020.94 1022.51 1022.69 1021.68 1021.19 1020.58 1019.80 1018.73 1017.68
1023.17 1022.66 1022.06 1021.32 1020.48 1019.94 1019.51 1019.08 1018.76 1018.66 1018.47 1018.37 1018.52 1018.41 1017.81 1017.06 1017.14 1017.11 1017.04 1017.06 1017.14 1017.22 1017.45 1017.61 1017.81 1018.09 1018.23 1018.02 1018.06 1018.19 1018.45 1018.67 1018.17 1017.82 1018.55 1018.79 1021.78 1022.93 1022.89 1022.42 1021.84 1020.72 1020.01 1018.98 1017.70
1023.33 1022.74 1022.07 1021.36 1020.57 1019.67 1019.26 1018.91 1018.78 1018.65 1018.67 1018.51 1018.61 1018.34 1017.83 1017.12 1017.23 1017.23 1017.07 1017.27 1017.20 1017.29 1017.44 1017.50 1018.05 1018.44 1018.50 1018.96 1019.47 1019.56 1019.49 1019.13 1018.54 1018.20 1018.95 1019.90 1022.28 1023.69 1023.49 1023.08 1022.10 1021.23 1020.15 1018.99 1017.48
1023.42 1022.80 1022.17 1021.55 1020.68 1019.53 1018.85 1018.54 1018.65 1018.68 1018.61 1018.41 1018.41 1018.60 1017.83 1017.91 1017.58 1017.39 1017.16 1017.22 1017.30 1017.35 1017.78 1018.02 1018.58 1019.28 1019.75 1019.93 1020.67 1020.39 1019.98 1019.35 1018.94 1019.05 1019.74 1021.45 1023.17 1024.16 1024.05 1023.59 1023.05 1022.23 1020.62 1018.81 1017.64
1023.45 1022.84 1022.12 1021.50 1020.81 1019.78 1018.98 1018.88 1019.55 1019.51 1019.20 1019.46 1019.16 1018.78 1018.20 1017.94 1017.62 1017.50 1017.32 1017.29 1017.34 1017.72 1018.08 1018.34 1019.32 1019.97 1019.86 1019.99 1020.03 1020.09 1019.88 1019.58 1018.88 1018.83 1019.94 1021.88 1023.31 1024.38 1024.40 1023.88 1023.77 1023.20 1022.07 1020.61 1019.34
1023.59 1022.85 1022.03 1021.41 1020.97 1020.31 1020.04 1021.26 1022.38 1022.48 1021.03 1019.30 1018.82 1018.59 1018.34 1018.23 1017.98 1017.62 1017.39 1017.74 1017.78 1018.02 1018.00 1018.75 1019.30 1019.43 1019.36 1019.46 1019.74 1019.60 1019.70 1019.69 1019.06 1018.84 1019.95 1022.03 1023.79 1024.57 1024.80 1025.02 1024.92 1024.40 1023.24 1022.11 1020.57
1023.71 1023.14 1022.28 1021.39 1020.80 1021.03 1021.64 1022.39 1022.44 1022.49 1021.89 1019.81 1018.90 1018.44 1018.27 1018.26 1018.02 1017.89 1017.98 1018.10 1018.08 1018.12 1018.41 1018.71 1018.95 1018.85 1019.23 1019.51 1019.80 1020.17 1020.16 1020.16 1019.96 1019.39 1019.54 1021.53 1023.64 1024.39 1024.95 1025.04 1024.80 1024.57 1024.26 1023.19 1022.46
1023.77 1023.27 1022.47 1021.49 1021.16 1021.73 1022.48 1022.68 1022.41 1022.36 1021.83 1020.28 1018.87 1018.37 1018.25 1018.11 1018.17 1017.95 1018.06 1018.38 1018.19 1018.37 1018.38 1018.60 1018.66 1018.81 1019.05 1019.39 1019.83 1019.96 1019.87 1020.05 1020.17 1020.26 1020.40 1020.76 1023.05 1024.20 1024.84 1024.89 1024.97 1024.78 1024.43 1024.29 1024.01
1023.79 1023.32 1022.73 1021.94 1022.40 1022.46 1022.96 1022.52 1022.43 1022.49 1022.01 1020.22 1018.91 1018.22 1018.13 1018.51 1018.34 1017.96 1018.02 1018.26 1018.62 1018.72 1019.04 1018.79 1018.69 1018.82 1019.08 1019.18 1019.50 1019.52 1019.36 1019.85 1020.19 1020.77 1020.84 1021.01 1022.45 1023.98 1024.41 1025.16 1025.78 1025.79 1025.34 1024.84 1024.40
1023.76 1023.46 1023.24 1022.58 1022.48 1022.62 1022.38 1022.36 1022.64 1022.38 1021.55 1020.21 1019.09 1018.65 1018.59 1018.23 1018.17 1017.97 1018.08 1018.16 1018.46 1018.98 1019.09 1018.96 1018.88 1018.99 1018.96 1018.79 1019.01 1019.23 1019.35 1019.70 1020.35 1021.18 1021.72 1021.40 1022.69 1024.71 1025.41 1026.24 1026.55 1026.48 1026.11 1025.69 1024.99
1023.79 1023.39 1023.33 1023.02 1022.85 1022.38 1022.34 1022.50 1022.56 1022.29 1021.30 1020.72 1020.02 1019.53 1019.41 1019.05 1018.61 1018.51 1018.64 1018.95 1019.50 1019.97 1020.01 1019.56 1019.37 1019.18 1019.20 1019.28 1019.08 1019.51 1020.02 1020.75 1021.62 1022.05 1022.19 1021.92 1023.15 1025.06 1025.87 1026.43 1026.87 1026.95 1026.75 1026.37 1025.94
1023.69 1023.04 1022.76 1022.58 1022.55 1022.39 1022.24 1022.25 1022.05 1022.02 1021.43 1020.78 1020.19 1019.89 1019.88 1019.50 1019.17 1019.02 1019.25 1019.83 1020.14 1020.57 1021.08 1021.03 1019.90 1019.71 1019.58 1019.83 1020.10 1020.16 1020.60 1021.60 1022.29 1022.62 1022.63 1022.44 1024.01 1025.02 1025.67 1026.38 1026.85 1027.14 1027.19 1027.09 1026.86
1023.54 1022.95 1022.83 1022.70 1022.48 1022.49 1022.35 1022.73 1022.36 1021.93 1021.64 1021.23 1020.47 1020.28 1020.16 1020.06 1020.22 1019.89 1019.86 1020.37 1020.71 1020.90 1021.43 1021.39 1020.85 1020.31 1019.97 1019.79 1020.09 1020.13 1020.58 1021.10 1021.89 1022.25 1022.81 1023.13 1024.70 1025.59 1026.11 1026.66 1027.05 1027.45 1027.64 1027.45 1027.36
1024.20 1023.67 1023.09 1022.68 1022.52 1022.63 1022.83 1022.54 1022.08 1021.72 1021.52 1021.53 1021.49 1021.10 1021.02 1020.67 1020.60 1020.60 1020.33 1020.55 1020.74 1020.93 1021.18 1021.64 1021.33 1020.27 1020.15 1020.14 1020.01 1020.20 1020.51 1021.10 1021.80 1022.37 1022.77 1023.04 1024.06 1024.89 1026.11 1026.79 1027.25 1027.71 1027.99 1028.13 1027.96
1024.35 1023.96 1022.93 1022.61 1022.66 1022.77 1023.07 1022.58 1022.04 1021.88 1021.80 1021.78 1021.67 1021.61 1021.49 1021.45 1021.15 1021.02 1020.61 1020.70 1020.75 1021.18 1021.47 1021.77 1022.10 1021.39 1020.60 1020.19 1020.12 1020.38 1020.57 1021.04 1021.42 1022.25 1022.70 1023.48 1023.71 1023.83 1025.14 1026.12 1027.05 1027.79 1028.27 1028.47 1028.68
1024.56 1024.23 1023.00 1022.63 1023.20 1023.10 1023.15 1022.45 1022.32 1022.05 1022.09 1022.13 1022.17 1022.10 1021.93 1021.84 1021.68 1021.42 1021.05 1020.95 1021.01 1021.34 1021.76 1022.06 1022.39 1022.33 1021.40 1020.77 1020.32 1020.25 1020.51 1021.04 1022.06 1022.36 1022.92 1023.54 1023.64 1024.03 1025.15 1026.17 1027.17 1028.06 1028.52 1028.89 1029.13
1024.79 1024.44 1023.32 1023.02 1023.66 1023.57 1023.06 1022.71 1022.42 1022.30 1022.35 1022.36 1022.36 1022.34 1022.25 1022.34 1022.38 1021.60 1021.31 1021.21 1021.24 1021.60 1022.05 1022.27 1022.62 1022.76 1021.70 1021.41 1020.87 1020.76 1020.85 1021.11 1021.83 1022.44 1022.82 1023.68 1023.76 1024.64 1025.53 1026.52 1027.43 1028.36 1028.97 1029.40 1029.71
1025.13 1024.99 1024.20 1024.04 1024.17 1023.95 1023.45 1022.90 1022.63 1022.49 1022.46 1022.46 1022.50 1022.48 1022.72 1022.59 1022.50 1022.13 1021.70 1021.53 1021.68 1022.00 1022.31 1022.74 1023.30 1023.23 1022.95 1022.33 1022.07 1021.62 1021.27 1021.26 1021.72 1022.63 1022.73 1022.70 1023.67 1024.97 1025.79 1026.84 1027.80 1028.53 1029.26 1029.91 1030.26
1025.15 1025.24 1025.14 1024.90 1024.31 1024.04 1023.75 1023.38 1022.88 1022.87 1022.70 1022.56 1022.75 1022.92 1023.22 1023.25 1022.87 1022.72 1022.38 1022.26 1022.42 1022.71 1022.96 1023.36 1023.62 1023.43 1022.80 1022.35 1022.30 1021.96 1021.40 1021.44 1021.67 1021.70 1022.37 1022.36 1023.37 1024.04 1025.49 1026.81 1027.98 1028.65 1029.29 1029.84 1030.28
1025.09 1025.23 1025.39 1024.88 1024.42 1024.35 1024.05 1023.58 1023.23 1022.82 1022.77 1022.79 1023.10 1023.21 1023.42 1023.57 1023.29 1023.21 1023.09 1023.08 1023.02 1023.40 1023.61 1023.82 1023.78 1023.49 1022.96 1022.43 1022.04 1021.83 1021.27 1021.01 1020.98 1021.14 1021.60 1022.64 1023.80 1024.95 1026.26 1027.36 1028.47 1029.16 1029.70 1030.19 1030.49
1025.12 1025.06 1025.04 1024.95 1024.60 1024.65 1024.10 1023.65 1023.42 1023.28 1022.88 1022.82 1023.02 1023.46 1023.72 1023.74 1023.65 1023.47 1023.26 1023.07 1023.33 1023.52 1023.98 1024.07 1024.33 1024.40 1023.50 1022.69 1022.29 1021.71 1020.75 1021.20 1021.23 1021.36 1021.76 1022.82 1023.94 1025.61 1027.09 1028.02 1028.96 1029.59 1030.03 1030.54 1030.81
Wind_Speed
14 14 15 15 15 15 14 14 13 13 12 12 12 13 13 14 15 1 2 1 3 8 11 6 9 6 2 1 2 3 6 4 5 7 6 8 9 8 9 6 7 3 4 8 13
15 15 15 16 16 16 16 16 14 13 12 11 11 12 12 13 3 4 1 3 5 7 6 7 7 9 3 1 2 5 4 2 2 3 5 7 6 7 4 7 7 8 13 8 9
15 16 16 16 16 16 16 16 15 13 12 10 10 10 10 8 2 1 1 4 5 6 4 5 6 3 4 1 3 1 3 3 3 4 3 5 6 3 6 6 15 18 11 11 7
16 16 17 17 17 18 17 16 15 14 12 10 9 9 9 2 3 1 1 1 4 4 5 7 7 6 5 4 5 2 2 3 4 5 4 6 4 5 14 10 14 17 19 14 13
17 18 19 19 19 19 18 16 16 14 11 9 7 5 3 2 2 3 2 4 4 3 5 4 5 4 4 5 8 3 2 5 7 3 5 12 12 5 20 21 19 20 21 20 18
18 19 19 19 19 18 17 17 16 11 8 6 4 0 0 3 2 5 1 3 3 4 6 5 2 3 4 4 1 4 3 5 1 4 4 11 9 9 16 17 20 20 19 18 18
18 18 19 20 21 20 18 16 12 8 5 0 3 1 2 2 2 2 0 2 1 2 3 2 3 3 4 5 2 3 5 7 1 3 2 8 11 8 10 15 18 19 20 19 18
19 19 20 20 22 20 17 14 8 6 4 3 2 2 2 2 2 4 5 1 1 3 1 1 3 1 1 3 5 5 4 3 6 3 7 7 0 8 14 17 20 22 20 20 18
20 20 21 21 22 20 15 11 6 5 2 3 1 1 2 1 3 3 2 1 4 1 1 1 2 2 7 4 6 7 2 3 3 3 4 6 1 10 13 17 22 24 22 18 13
18 20 20 20 21 21 19 2 2 4 3 3 2 3 4 3 3 4 3 1 2 2 3 3 4 4 5 6 0 5 4 2 4 3 8 12 5 9 13 15 21 24 22 16 11
18 19 20 19 19 19 10 3 8 5 10 2 3 3 3 6 1 3 1 4 1 1 1 1 7 2 6 3 4 5 4 3 5 4 6 9 8 7 11 16 21 22 21 19 18
18 20 22 20 18 15 6 7 3 3 5 3 3 2 3 1 2 3 7 1 3 3 2 6 1 5 7 3 5 7 2 4 4 2 6 6 7 5 9 14 16 17 19 21 23
17 19 23 22 13 5 7 4 3 3 0 4 1 2 3 3 3 4 4 4 2 3 4 3 2 4 5 4 7 4 3 4 4 6 3 10 4 3 3 7 13 15 14 18 22
16 18 23 27 6 4 4 5 3 2 5 7 3 2 2 1 2 1 1 1 3 3 2 2 1 3 4 1 2 1 5 3 6 2 2 4 2 2 3 11 14 13 14 15 14
14 16 19 9 3 4 4 4 2 2 6 4 5 1 2 2 4 2 1 2 2 4 4 6 2 3 2 3 1 7 4 6 4 4 3 4 5 4 4 7 10 11 13 13 15
14 15 17 3 2 1 3 3 3 7 3 6 2 5 5 2 2 4 1 1 1 3 2 4 0 3 3 6 4 6 3 1 3 1 3 4 6 3 5 4 5 6 10 14 15
16 15 9 3 4 5 3 3 6 7 4 6 4 5 4 4 4 1 3 6 3 6 4 5 2 1 1 5 5 8 6 4 4 3 5 3 5 1 4 6 6 7 9 11 12
16 18 3 2 3 4 2 5 7 0 2 2 4 5 3 4 3 3 2 1 4 3 2 3 8 2 2 2 2 3 4 4 2 1 5 1 2 2 7 8 6 7 5 7 10
15 3 2 2 4 3 5 5 4 1 1 5 8 2 2 2 2 4 1 2 1 4 3 5 6 3 2 1 2 4 3 5 2 2 0 3 4 3 6 6 6 6 7 8 9
3 4 3 4 4 3 5 3 2 1 0 1 1 3 3 5 5 6 3 2 2 2 3 2 5 3 1 2 2 1 2 2 2 1 4 3 4 5 8 7 6 5 5 6 7
2 4 2 4 2 5 3 3 2 1 1 0 2 4 3 3 3 3 3 2 1 1 3 2 2 8 3 2 3 1 2 2 1 4 3 3 4 6 9 9 9 7 6 5 7
2 3 3 3 4 1 1 2 0 1 1 2 1 2 3 3 4 3 3 1 1 2 2 2 2 4 9 4 2 0 2 2 3 3 2 3 5 6 8 8 8 7 7 6 6
0 3 4 4 0 2 3 2 1 1 2 1 2 4 3 2 4 3 3 1 1 1 1 1 2 5 9 2 2 1 2 3 2 2 5 2 4 4 7 8 7 8 7 6 6
1 3 4 4 1 1 2 3 1 1 2 1 3 1 2 3 5 5 2 2 3 2 3 2 2 6 7 7 2 4 4 4 5 4 3 7 5 7 9 10 7 7 8 7 6
1 2 1 3 2 2 1 2 2 2 2 3 3 4 4 4 4 5 4 2 1 2 1 3 5 5 10 12 6 11 14 11 12 12 9 2 4 10 11 10 7 6 7 7 5
3 3 1 3 1 2 3 3 4 3 5 2 4 4 4 5 6 7 3 2 6 2 4 2 5 3 6 10 14 15 14 14 16 15 14 10 3 4 7 8 7 6 7 6 5
1 1 3 2 2 2 4 5 2 3 4 0 5 2 9 6 3 6 6 4 5 4 6 5 3 2 7 5 7 9 7 3 3 3 5 11 4 7 6 8 6 6 6 5 5
Wind_Direction
8 5 359 353 348 343 339 336 332 329 329 331 332 333 335 331 318 59 30 43 31 355 333 315 357 340 307 155 63 59 54 35 11 30 313 356 12 350 330 349 329 292 252 256 283
6 2 358 350 345 341 337 333 328 323 322 324 326 329 331 337 320 325 238 71 23 360 359 347 326 337 345 83 65 81 86 318 336 54 350 342 354 305 355 321 317 321 318 303 303
3 357 353 347 341 337 334 329 324 319 317 316 318 322 324 328 354 45 211 53 8 351 287 301 295 295 354 53 26 127 156 302 26 9 1 308 311 303 352 13 346 327 297 300 287
358 353 349 343 338 334 333 326 321 317 314 310 311 314 320 276 104 327 87 30 344 327 324 341 353 18 20 21 341 62 23 36 320 0 346 359 345 28 39 334 358 359 360 334 306
355 350 345 340 335 334 331 323 321 319 314 303 301 312 310 58 24 201 244 264 329 321 327 346 24 15 9 326 340 142 62 347 331 7 30 70 26 81 16 358 355 354 357 346 340
354 346 340 335 334 334 329 326 326 326 318 299 273 330 28 79 166 160 286 342 10 10 345 35 4 298 279 265 328 298 67 272 76 340 122 81 31 40 0 355 356 354 345 337 320
350 345 339 336 335 336 331 334 337 346 356 28 196 229 73 146 96 53 285 158 81 45 358 35 0 30 350 323 312 295 17 76 343 305 42 131 42 29 347 356 3 357 342 332 326
350 346 342 339 334 333 329 333 339 359 38 99 163 288 75 316 325 38 11 290 88 110 26 347 11 260 236 278 356 348 57 95 294 20 2 100 290 10 357 348 356 353 342 332 320
349 344 342 340 335 327 325 315 317 11 344 135 25 42 14 309 40 322 107 335 298 228 221 293 36 350 6 22 25 13 311 353 271 62 97 67 51 28 349 355 0 351 336 320 312
344 341 340 340 336 326 333 166 313 342 267 237 268 41 359 333 317 316 259 217 291 306 352 26 43 41 18 48 274 286 334 324 255 86 85 88 111 40 359 352 11 349 343 354 11
342 340 337 339 337 326 350 13 15 3 38 29 291 289 326 308 75 257 276 347 231 88 8 64 64 331 276 257 235 252 226 264 251 177 102 106 95 44 14 1 18 350 352 9 31
341 339 336 339 338 329 16 62 53 233 320 294 251 250 247 353 303 352 10 10 357 317 16 24 106 261 286 4 39 356 45 321 292 262 104 130 102 94 44 22 28 350 358 10 17
339 341 336 337 332 40 83 67 321 1 241 325 330 310 262 353 312 311 34 336 284 352 7 161 229 331 9 29 34 18 90 289 260 312 242 140 119 136 88 74 45 17 10 21 18
337 341 338 331 54 339 52 335 333 84 79 325 334 300 302 274 307 328 90 138 324 327 344 136 16 37 357 47 76 156 213 220 283 327 210 115 249 95 155 45 38 23 21 21 18
335 340 341 357 269 50 296 326 300 52 61 298 317 270 308 3 314 284 188 80 344 301 74 265 336 25 335 247 211 238 262 224 218 267 8 300 81 266 16 19 22 12 27 21 25
332 336 346 23 1 151 307 336 59 42 301 335 310 352 7 263 245 319 313 67 321 326 237 262 155 156 225 291 189 278 308 311 124 123 21 238 119 339 8 9 18 11 19 24 23
325 324 330 301 298 320 341 73 37 82 337 321 327 340 351 294 315 358 344 8 32 28 342 331 294 324 302 339 3 25 40 1 2 21 225 215 60 136 103 66 67 24 18 22 22
318 315 266 232 315 337 65 43 71 40 5 358 296 302 257 354 286 308 334 319 21 37 323 344 334 342 7 132 263 304 119 140 248 290 273 175 174 172 129 113 91 65 25 36 32
317 336 309 296 325 16 54 47 213 192 285 338 323 340 313 320 310 344 345 108 39 38 51 7 297 345 333 317 101 331 44 178 167 245 90 161 83 44 121 107 91 67 45 24 34
344 335 289 319 13 45 70 236 160 117 313 262 329 7 334 318 9 27 273 296 147 76 102 318 309 287 284 307 256 213 234 78 13 344 303 267 165 184 171 150 123 87 57 42 29
346 344 272 341 57 50 127 230 70 69 23 235 310 311 323 343 325 284 283 299 17 204 28 340 130 290 352 212 224 306 336 305 169 151 193 289 253 187 165 160 141 134 111 73 52
17 313 310 15 26 28 259 348 278 333 44 332 68 245 247 301 288 279 288 341 41 79 315 226 183 277 249 314 331 301 215 141 130 280 265 196 266 141 139 132 126 122 118 101 77
246 268 318 61 78 332 304 287 300 212 259 176 283 232 25 286 317 258 317 230 56 77 230 192 277 332 327 314 356 37 267 218 133 75 223 182 258 177 130 125 131 120 108 95 87
52 345 322 42 95 134 307 301 207 220 257 273 277 58 329 273 223 276 247 241 169 152 144 42 260 193 231 281 328 281 251 238 182 174 247 228 161 196 168 148 135 117 115 102 86
68 214 189 300 321 240 316 290 228 242 225 185 307 213 219 281 317 261 275 256 249 182 156 156 230 229 260 274 273 272 268 249 229 230 216 254 183 191 173 148 142 125 108 89 76
154 152 333 284 278 245 171 237 224 264 190 218 221 297 310 247 234 264 309 268 234 198 185 203 263 268 277 273 259 268 268 253 246 243 244 248 227 97 105 109 107 104 97 82 61
96 30 114 250 247 170 216 221 255 134 282 248 185 27 294 300 308 270 259 242 224 197 211 185 196 9 273 304 317 276 259 247 296 40 268 234 159 144 112 114 119 101 87 83 64